Regional Weather Roundup
Issued by NWS

Home | Current Version | Previous Version | Text Only | Print | Product List | Glossary Off
Versions: 1 2 3 4 5 6 7 8 9 10 11 12 13 14 15 16 17 18 19 20 21 22 23 24 25 26 27 28 29 30 31 32 33 34 35 36 37 38 39 40 41 42 43 44 45 46 47 48 49 50

000
ASUS43 KOAX 012202
RWRNE

WEATHER ROUNDUP FOR NEBRASKA
NATIONAL WEATHER SERVICE OMAHA NE
400 PM CST SUN MAR 01 2015

NOTES: SATELLITE DATA IS BEING USED TO AUGMENT CLOUD COVER ABOVE
       12000 FEET.
       "FAIR" INDICATES FEW OR NO CLOUDS BELOW 12,000 FEET WITH NO
       SIGNIFICANT WEATHER AND/OR OBSTRUCTIONS TO VISIBILITY.

  * THESE STATIONS DO NOT REPORT WEATHER SUCH AS RAIN...SNOW OR FOG.

NEZ001>004-019>022-054>056-012300-
NEBRASKA PANHANDLE

CITY           SKY/WX    TMP DP  RH WIND       PRES   REMARKS
SCOTTSBLUFF    MOSUNNY   36  11  35 NW9       30.25S WCI  29
ALLIANCE       SUNNY     35   8  32 VRB5      30.24R WCI  31
CHADRON        SUNNY     34   8  33 NW16G24   30.26R WCI  24
KIMBALL        MOSUNNY   28  15  56 CALM      30.21R
SIDNEY         MOSUNNY   33  13  43 NW9       30.25R WCI  25
$$

NEZ057>060-069>072-079>082-012300-
SOUTHWEST NEBRASKA

CITY           SKY/WX    TMP DP  RH WIND       PRES   REMARKS
NORTH PLATTE   SUNNY     39  12  33 NW7       30.29R WCI  34
IMPERIAL         N/A     37  12  35 N6        30.28R WCI  32
LEXINGTON      SUNNY     40  12  32 N8        30.31R WCI  34
MCCOOK         SUNNY     41  10  28 N10       30.30R
OGALLALA       SUNNY     37  13  36 N10       30.27S WCI  30
$$

NEZ005>010-023>029-035>040-094-012300-
NORTH CENTRAL NEBRASKA

CITY           SKY/WX    TMP DP  RH WIND       PRES   REMARKS
VALENTINE      MOSUNNY   35   7  31 NW13      30.29R WCI  26
AINSWORTH      MOSUNNY   33   7  33 NW15      30.29S WCI  23
BROKEN BOW     SUNNY     39  14  36 NW8       30.29S WCI  33
O`NEILL        CLOUDY    37  10  31 NW20      30.31S WCI  27
ORD            SUNNY     38  11  32 NW10G21   30.30S WCI  31
$$

NEZ041-046>049-061>064-073>077-083>087-012300-
SOUTH CENTRAL NEBRASKA

CITY           SKY/WX    TMP DP  RH WIND       PRES   REMARKS
GRAND ISLAND   SUNNY     40  13  33 NW10      30.33S WCI  33
AURORA         SUNNY     39  11  31 N8        30.32S WCI  34
HASTINGS       SUNNY     39  10  30 N8        30.32R WCI  33
HEBRON         SUNNY     39  13  35 NE5       30.36R
HOLDREGE       SUNNY     38   9  30 N6        30.31S WCI  33
KEARNEY *      SUNNY     39  10  30 N6        30.32S WCI  35
YORK           SUNNY     39  12  33 NW6       30.34R WCI  35
$$

NEZ011>018-030>034-042>045-012300-
NORTHEAST NEBRASKA

CITY           SKY/WX    TMP DP  RH WIND       PRES   REMARKS
NORFOLK        SUNNY     39  12  33 NW16      30.31S WCI  30
ALBION         SUNNY     39  10  30 NW17G24   30.31S WCI  30
BLAIR          SUNNY     38  15  38 W12G18    30.33S WCI  31
COLUMBUS *     SUNNY     39  12  33 NW17G23   30.34S WCI  30
FREMONT        SUNNY     41  14  33 NW15      30.34S
TEKAMAH        SUNNY     40  16  37 NW16      30.35R WCI  31
WAYNE          SUNNY     38  10  31 NW16G22   30.33S WCI  29
$$

NEZ050>053-065>068-078-088>093-012300-
SOUTHEAST NEBRASKA

CITY           SKY/WX    TMP DP  RH WIND       PRES   REMARKS
LINCOLN        SUNNY     42  14  32 NW9       30.36S
OMAHA EPPLEY   MOSUNNY   39  16  39 NW9       30.35S WCI  33
BEATRICE       SUNNY     38  19  47 N3G16     30.35S
FALLS CITY     MOSUNNY   37  18  46 VRB3      30.36S
NEBRASKA CITY  SUNNY     37  10  32 NW5       30.36R WCI  34
PLATTSMOUTH    SUNNY     37  12  36 NW6       30.35S WCI  32
$$

NEZ044-045-051>053-067-012300-
OMAHA AREA

CITY           SKY/WX    TMP DP  RH WIND       PRES   REMARKS
OMAHA EPPLEY   MOSUNNY   39  16  39 NW9       30.35S WCI  33
BLAIR          SUNNY     38  15  38 W12G18    30.33S WCI  31
FREMONT        SUNNY     41  14  33 NW15      30.34S
MILLARD        SUNNY     39  15  37 NW8       30.34F WCI  33
OFFUTT AFB     SUNNY     38  15  37 W8        30.34F WCI  33
PLATTSMOUTH    SUNNY     37  12  36 NW6       30.35S WCI  32
WAHOO          FAIR      40  11  30 NW10      30.34S WCI  34
$$


USA.gov is the U.S. government's official web portal to all federal, state and local government web resources and services.